Regional Weather Roundup
Issued by NWS Charleston, SC

Current Version | Previous Version | Text Only | Print | Product List | Glossary Off
Versions: 1 2 3 4 5 6 7 8 9 10 11 12 13 14 15 16 17 18 19 20 21 22 23 24 25 26 27 28 29 30 31 32 33 34 35 36 37 38 39 40 41 42 43 44 45 46 47 48 49 50
000 ASUS42 KCHS 040327 RWRCHS REGIONAL WEATHER ROUNDUP NATIONAL WEATHER SERVICE CHARLESTON SC 1100 PM EDT FRI JUL 03 2015 NOTE: "FAIR" INDICATES FEW OR NO CLOUDS BELOW 12,000 FEET WITH NO SIGNIFICANT WEATHER AND/OR OBSTRUCTIONS TO VISIBILITY. NOT ALL STATIONS ARE QUALITY CONTROLLED BY THE NATIONAL WEATHER SERVICE. USE DATA WITH CAUTION...ESPECIALLY DEWPOINT OBSERVATIONS. SCZ027-030-031-034>040-042>050-040400- ...SOUTHEAST SOUTH CAROLINA... CITY SKY/WX TMP DP RH WIND PRES REMARKS N CHARLESTON PTCLDY 77 74 90 S7 30.02R WATERFRONT PAR N/A 80 76 87 S7 29.99R MOUNT PLEASANT LGT RAIN 79 75 89 S8 30.03R JOHNS ISLAND FAIR 81 77 89 S10G21 30.04R PINOPOLIS NOT AVBL MONCKS CORNER FAIR 75 72 88 CALM 30.03R SUMMERVILLE FAIR 73 73 100 CALM 30.03S BEAUFORT MCAS CLEAR 81 76 84 S5 30.03R BEAUFORT ARPT FAIR 82 75 78 SW8 30.03R HILTON HEAD IS CLEAR 82 75 78 S13G18 30.06R WALTERBORO PTCLDY 73 72 94 CALM 30.03R ALLENDALE FAIR 77 72 83 CALM 30.02R ...SOUTHERN MIDLANDS AND PEE DEE... CITY SKY/WX TMP DP RH WIND PRES REMARKS GEORGETOWN NOT AVBL KINGSTREE NOT AVBL ORANGEBURG PTCLDY 74 69 85 S3 30.02R BARNWELL FAIR 73 72 94 CALM 30.03R AIKEN NOT AVBL MANNING FAIR 75 70 83 SW6 30.02R COLUMBIA MOCLDY 79 69 71 SW8 30.00R SUMTER MOCLDY 79 69 71 SW16 29.97R FLORENCE CLEAR 77 71 82 SW9 29.96R MYRTLE BEACH PTCLDY 75 70 83 SW10G17 30.01R N MYRTLE BEACH MOCLDY 76 69 79 SW13G20 29.97R $$ GAZ063-065-086>088-099>101-113>116-118-119-134>141-150-040400- ...SOUTHEAST GEORGIA... CITY SKY/WX TMP DP RH WIND PRES REMARKS SAVANNAH ARPT CLEAR 81 72 74 S10 30.04R HUNTER AAF CLEAR 82 76 81 S8 30.03R FORT STEWART CLEAR 80 69 70 SE6 30.03R STATESBORO NOT AVBL SYLVANIA CLEAR 80 75 86 SW5 30.04R CLAXTON FAIR 81 72 74 SW3 30.04R ...CSRA...CENTRAL AND FAR SOUTHEAST GEORGIA... CITY SKY/WX TMP DP RH WIND PRES REMARKS THOMSON PTCLDY 75 75 100 CALM 30.08R AUGUSTA-BUSH PTCLDY 75 73 93 CALM 30.01R AUGUSTA-DANIEL PTCLDY 78 72 81 CALM 30.04R SWAINSBORO FAIR 81 73 78 SW5 30.05R VIDALIA CLEAR 81 72 74 SW3 30.06R EASTMAN FAIR 82 72 73 SW3 30.07R HAZLEHURST FAIR 81 73 78 CALM 30.05R ALMA CLEAR 79 73 82 S5 30.05R WAYCROSS CLEAR 83 76 79 SW7 30.07R HX 91 JESUP FAIR 81 73 78 CALM 30.06R BAXLEY FAIR 79 73 83 CALM 30.05S BRUNSWICK CLEAR 82 72 69 S7 30.07S SAINT SIMONS CLEAR 81 73 76 S14G21 30.06R $$ SCZ027-028-034-036>038-045-046-048>050-GAZ119-141-040400- ...LAKE AND SUPPLEMENTAL COASTAL OBSERVATIONS... STATION/POSITION TIME TEMP WIND PRES WAVE SWELL AIR SEA DIR/SP/G HT/PER HT/PER/DIR (UTC) (F) (DEG/KT/KT) (MB) (FT/S) (FT/S/D) UPR LAKE MARION NOT AVBL WINYAH BAY 0245 78 230/ 9 1015.0R LAKE MURRAY 0300 81 260/ 17/ 23 1015.2R ACE BASIN NERRS NOT AVBL FORT PULASKI 0300 83 84 200/ 11/ 16 1017.9R SAPELO ISLAND 0300 81 190/ 16 1018.0R $$ ANZ835-935-AMZ111-154-330-350-352-354-370-450-454-472-040400- ...C-MAN AND BUOY OBSERVATIONS... STATION/POSITION TIME TEMP WIND PRES WAVE SWELL AIR SEA DIR/SP/G HT/PER HT/PER/DIR (UTC) (F) (DEG/KT/KT) (MB) (FT/S) (FT/S/D) BUOY 41004 0250 83 81 200/ 16/ 17 1016.1R 3/ 9 2/ 9 BUOY 41008 0250 80 78 190/ 14/ 17 1017.7R 3/ 9 2/110/ 9 FOLLY BEACH CMAN 0300 81 210/ 17/ 19 1016.9R CAPERS NEARSHORE 0208 81 210/ 17/ 21 1016.4R FRIPP NEARSHORE 0200 82 200/ 16/ 17 1015.9R STATION/POSITION TIME TEMP WIND PRES WAVE SWELL AIR SEA DIR/SP/G HT/PER HT/PER/DIR (UTC) (F) (DEG/KT/KT) (MB) (FT/S) (FT/S/D) 5E ST. MARYS GA 0221 78 N/A 3/ 9 FRYING PAN BUOY 0250 81 79 210/ 21/ 25 1014.9R 6/ 6 2/140/ 9 BUOY 41025 0250 81 81 220/ 19/ 23 1012.8R 6/ 5 2/130/15 CAPE LOOKOUT NC 0300 78 220/ 14/ 20 1013.3R BUOY 41002 0250 81 81 220/ 14/ 16 1019.4R 5/ 6 3/150/ 9 BUOY 41010 0220 83 85 160/ 10/ 12 1020.3 ST AUGUSTINE FL 0300 81 73 200/ 7/ 9 1019.8R $$

USA.gov is the U.S. government's official web portal to all federal, state and local government web resources and services.